Time,TemperatureF,DewpointF,PressureIn,WindDirection,WindDirectionDegrees,WindSpeedMPH,WindSpeedGustMPH,Humidity,HourlyPrecipIn,Conditions,Clouds,dailyrainin,SoftwareType,DateUTC
2013-05-03 00:02:00,35.8,23.7,30.39,North,0,0.0,0.0,61,0.00,,,0.00,WUHU21623XXSP,2013-05-03 05:02:00,
2013-05-03 00:07:00,35.8,24.1,30.39,North,0,0.0,0.0,62,0.00,,,0.00,WUHU21623XXSP,2013-05-03 05:07:00,
2013-05-03 00:12:00,35.8,24.1,30.39,North,0,0.0,0.0,62,0.00,,,0.00,WUHU21623XXSP,2013-05-03 05:12:00,
2013-05-03 00:17:00,35.4,23.7,30.39,North,0,0.0,0.0,62,0.00,,,0.00,WUHU21623XXSP,2013-05-03 05:17:00,
2013-05-03 00:22:00,35.4,23.7,30.39,North,0,0.0,0.0,62,0.00,,,0.00,WUHU21623XXSP,2013-05-03 05:22:00,
2013-05-03 00:27:00,35.2,23.9,30.39,North,0,0.0,0.0,63,0.00,,,0.00,WUHU21623XXSP,2013-05-03 05:27:00,
2013-05-03 00:32:00,34.9,23.5,30.39,North,0,0.0,0.0,63,0.00,,,0.00,WUHU21623XXSP,2013-05-03 05:32:00,
2013-05-03 00:37:00,34.9,23.5,30.39,North,0,0.0,0.0,63,0.00,,,0.00,WUHU21623XXSP,2013-05-03 05:37:00,
2013-05-03 00:42:00,34.7,23.4,30.39,North,0,0.0,0.0,63,0.00,,,0.00,WUHU21623XXSP,2013-05-03 05:42:00,
2013-05-03 00:47:00,34.5,23.5,30.39,North,0,0.0,0.0,64,0.00,,,0.00,WUHU21623XXSP,2013-05-03 05:47:00,
2013-05-03 00:52:00,34.5,23.5,30.39,North,0,0.0,0.0,64,0.00,,,0.00,WUHU21623XXSP,2013-05-03 05:52:00,
2013-05-03 00:57:00,34.5,23.5,30.38,North,0,0.0,0.0,64,0.00,,,0.00,WUHU21623XXSP,2013-05-03 05:57:00,
2013-05-03 01:02:00,34.3,23.4,30.38,North,0,0.0,0.0,64,0.00,,,0.00,WUHU21623XXSP,2013-05-03 06:02:00,
2013-05-03 01:10:00,34.3,23.4,30.38,North,0,0.0,0.0,64,0.00,,,0.00,WUHU21623XXSP,2013-05-03 06:10:00,
2013-05-03 01:15:00,34.2,23.5,30.38,North,0,0.0,0.0,65,0.00,,,0.00,WUHU21623XXSP,2013-05-03 06:15:00,
2013-05-03 01:20:00,34.2,23.5,30.38,North,0,0.0,0.0,65,0.00,,,0.00,WUHU21623XXSP,2013-05-03 06:20:00,
2013-05-03 01:25:00,34.2,23.5,30.38,North,0,0.0,0.0,65,0.00,,,0.00,WUHU21623XXSP,2013-05-03 06:25:00,
2013-05-03 01:30:00,34.0,23.4,30.37,North,0,0.0,0.0,65,0.00,,,0.00,WUHU21623XXSP,2013-05-03 06:30:00,
2013-05-03 01:35:00,34.2,23.4,30.38,North,0,0.0,0.0,66,0.00,,,0.00,WUHU21623XXSP,2013-05-03 06:35:00,
2013-05-03 01:40:00,34.0,23.7,30.37,North,0,0.0,0.0,66,0.00,,,0.00,WUHU21623XXSP,2013-05-03 06:40:00,
2013-05-03 01:45:00,34.0,23.7,30.36,North,0,0.0,0.0,66,0.00,,,0.00,WUHU21623XXSP,2013-05-03 06:45:00,
2013-05-03 01:50:00,34.2,23.9,30.36,North,0,0.0,0.0,66,0.00,,,0.00,WUHU21623XXSP,2013-05-03 06:50:00,
2013-05-03 01:55:00,34.2,23.9,30.36,North,0,0.0,0.0,66,0.00,,,0.00,WUHU21623XXSP,2013-05-03 06:55:00,
2013-05-03 02:00:00,34.0,23.7,30.36,North,0,0.0,0.0,66,0.00,,,0.00,WUHU21623XXSP,2013-05-03 07:00:00,
2013-05-03 02:05:00,34.0,23.7,30.35,North,0,0.0,0.0,66,0.00,,,0.00,WUHU21623XXSP,2013-05-03 07:05:00,
2013-05-03 02:10:00,34.0,23.7,30.35,North,0,0.0,0.0,66,0.00,,,0.00,WUHU21623XXSP,2013-05-03 07:10:00,
2013-05-03 02:15:00,34.0,23.7,30.35,North,0,0.0,0.0,66,0.00,,,0.00,WUHU21623XXSP,2013-05-03 07:15:00,
2013-05-03 02:20:00,34.0,23.7,30.35,North,0,0.0,0.0,66,0.00,,,0.00,WUHU21623XXSP,2013-05-03 07:20:00,
2013-05-03 02:25:00,33.6,23.4,30.35,North,0,0.0,0.0,66,0.00,,,0.00,WUHU21623XXSP,2013-05-03 07:25:00,
2013-05-03 02:30:00,33.6,23.4,30.35,North,0,0.0,0.0,66,0.00,,,0.00,WUHU21623XXSP,2013-05-03 07:30:00,
2013-05-03 02:35:00,33.6,23.4,30.35,North,0,0.0,0.0,66,0.00,,,0.00,WUHU21623XXSP,2013-05-03 07:35:00,
2013-05-03 02:40:00,33.6,23.4,30.35,North,0,0.0,0.0,66,0.00,,,0.00,WUHU21623XXSP,2013-05-03 07:40:00,
2013-05-03 02:45:00,33.6,23.4,30.35,North,0,0.0,0.0,66,0.00,,,0.00,WUHU21623XXSP,2013-05-03 07:45:00,
2013-05-03 02:50:00,33.6,23.4,30.35,North,0,0.0,0.0,66,0.00,,,0.00,WUHU21623XXSP,2013-05-03 07:50:00,
2013-05-03 02:55:00,33.4,23.2,30.35,North,0,0.0,0.0,66,0.00,,,0.00,WUHU21623XXSP,2013-05-03 07:55:00,
2013-05-03 03:01:00,33.4,23.2,30.35,North,0,0.0,0.0,66,0.00,,,0.00,WUHU21623XXSP,2013-05-03 08:01:00,
2013-05-03 03:06:00,33.3,23.1,30.35,North,0,0.0,0.0,66,0.00,,,0.00,WUHU21623XXSP,2013-05-03 08:06:00,
2013-05-03 03:11:00,33.3,23.4,30.34,North,0,0.0,0.0,67,0.00,,,0.00,WUHU21623XXSP,2013-05-03 08:11:00,
2013-05-03 03:16:00,33.1,23.3,30.34,North,0,0.0,0.0,67,0.00,,,0.00,WUHU21623XXSP,2013-05-03 08:16:00,
2013-05-03 03:21:00,33.1,23.3,30.34,North,0,0.0,0.0,67,0.00,,,0.00,WUHU21623XXSP,2013-05-03 08:21:00,
2013-05-03 03:26:00,33.1,23.3,30.34,North,0,0.0,0.0,67,0.00,,,0.00,WUHU21623XXSP,2013-05-03 08:26:00,
2013-05-03 03:30:00,33.1,23.3,30.34,North,0,0.0,0.0,67,0.00,,,0.00,WUHU21623XXSP,2013-05-03 08:30:00,
2013-05-03 03:35:00,32.9,23.1,30.34,North,0,0.0,0.0,67,0.00,,,0.00,WUHU21623XXSP,2013-05-03 08:35:00,
2013-05-03 03:40:00,32.9,23.1,30.33,North,0,0.0,0.0,67,0.00,,,0.00,WUHU21623XXSP,2013-05-03 08:40:00,
2013-05-03 03:45:00,32.7,22.9,30.33,North,0,0.0,0.0,67,0.00,,,0.00,WUHU21623XXSP,2013-05-03 08:45:00,
2013-05-03 03:50:00,32.7,23.3,30.32,North,0,0.0,0.0,68,0.00,,,0.00,WUHU21623XXSP,2013-05-03 08:50:00,
2013-05-03 03:55:00,32.7,23.3,30.32,North,0,0.0,0.0,68,0.00,,,0.00,WUHU21623XXSP,2013-05-03 08:55:00,
2013-05-03 04:00:00,32.7,23.3,30.33,North,0,0.0,0.0,68,0.00,,,0.00,WUHU21623XXSP,2013-05-03 09:00:00,
2013-05-03 04:05:00,32.7,23.3,30.33,North,0,0.0,0.0,68,0.00,,,0.00,WUHU21623XXSP,2013-05-03 09:05:00,
2013-05-03 04:10:00,32.5,23.1,30.32,North,0,0.0,0.0,68,0.00,,,0.00,WUHU21623XXSP,2013-05-03 09:10:00,
2013-05-03 04:15:00,32.5,23.1,30.32,North,0,0.0,0.0,68,0.00,,,0.00,WUHU21623XXSP,2013-05-03 09:15:00,
2013-05-03 04:20:00,32.4,23.0,30.32,North,0,0.0,0.0,68,0.00,,,0.00,WUHU21623XXSP,2013-05-03 09:20:00,
2013-05-03 04:26:00,32.4,23.0,30.32,North,0,0.0,0.0,68,0.00,,,0.00,WUHU21623XXSP,2013-05-03 09:26:00,
2013-05-03 04:31:00,32.2,22.8,30.32,North,0,0.0,0.0,68,0.00,,,0.00,WUHU21623XXSP,2013-05-03 09:31:00,
2013-05-03 04:36:00,32.2,23.2,30.32,North,0,0.0,0.0,69,0.00,,,0.00,WUHU21623XXSP,2013-05-03 09:36:00,
2013-05-03 04:41:00,31.8,22.8,30.32,North,0,0.0,0.0,69,0.00,,,0.00,WUHU21623XXSP,2013-05-03 09:41:00,
2013-05-03 04:46:00,31.8,22.8,30.32,North,0,0.0,0.0,69,0.00,,,0.00,WUHU21623XXSP,2013-05-03 09:46:00,
2013-05-03 04:50:00,31.8,22.8,30.32,North,0,0.0,0.0,69,0.00,,,0.00,WUHU21623XXSP,2013-05-03 09:50:00,
2013-05-03 04:55:00,31.6,22.6,30.32,North,0,0.0,0.0,69,0.00,,,0.00,WUHU21623XXSP,2013-05-03 09:55:00,
2013-05-03 05:01:00,31.6,22.6,30.32,North,0,0.0,0.0,69,0.00,,,0.00,WUHU21623XXSP,2013-05-03 10:01:00,
2013-05-03 05:06:00,31.6,22.6,30.32,North,0,0.0,0.0,69,0.00,,,0.00,WUHU21623XXSP,2013-05-03 10:06:00,
2013-05-03 05:11:00,31.6,23.0,30.32,North,0,0.0,0.0,70,0.00,,,0.00,WUHU21623XXSP,2013-05-03 10:11:00,
2013-05-03 05:16:00,31.6,23.0,30.31,North,0,0.0,0.0,70,0.00,,,0.00,WUHU21623XXSP,2013-05-03 10:16:00,
2013-05-03 05:21:00,31.3,22.6,30.31,North,0,0.0,0.0,70,0.00,,,0.00,WUHU21623XXSP,2013-05-03 10:21:00,
2013-05-03 05:26:00,31.3,22.6,30.31,North,0,0.0,0.0,70,0.00,,,0.00,WUHU21623XXSP,2013-05-03 10:26:00,
2013-05-03 05:31:00,31.5,22.8,30.31,North,0,0.0,0.0,70,0.00,,,0.00,WUHU21623XXSP,2013-05-03 10:31:00,
2013-05-03 05:36:00,31.3,22.6,30.31,North,0,0.0,0.0,70,0.00,,,0.00,WUHU21623XXSP,2013-05-03 10:36:00,
2013-05-03 05:41:00,31.3,22.6,30.31,North,0,0.0,0.0,70,0.00,,,0.00,WUHU21623XXSP,2013-05-03 10:41:00,
2013-05-03 05:46:00,31.5,22.8,30.31,North,0,0.0,0.0,70,0.00,,,0.00,WUHU21623XXSP,2013-05-03 10:46:00,
2013-05-03 05:51:00,31.5,23.1,30.31,North,0,0.0,0.0,71,0.00,,,0.00,WUHU21623XXSP,2013-05-03 10:51:00,
2013-05-03 05:56:00,31.6,23.3,30.30,North,0,0.0,0.0,71,0.00,,,0.00,WUHU21623XXSP,2013-05-03 10:56:00,
2013-05-03 06:01:00,31.6,23.3,30.30,North,0,0.0,0.0,71,0.00,,,0.00,WUHU21623XXSP,2013-05-03 11:01:00,
2013-05-03 06:06:00,31.6,23.3,30.30,North,0,0.0,0.0,71,0.00,,,0.00,WUHU21623XXSP,2013-05-03 11:06:00,
2013-05-03 06:11:00,31.6,23.3,30.29,North,0,0.0,0.0,71,0.00,,,0.00,WUHU21623XXSP,2013-05-03 11:11:00,
2013-05-03 06:16:00,31.6,23.3,30.29,North,0,0.0,0.0,71,0.00,,,0.00,WUHU21623XXSP,2013-05-03 11:16:00,
2013-05-03 06:21:00,31.6,23.3,30.29,North,0,0.0,0.0,71,0.00,,,0.00,WUHU21623XXSP,2013-05-03 11:21:00,
2013-05-03 06:26:00,31.6,23.3,30.29,North,0,0.0,0.0,71,0.00,,,0.00,WUHU21623XXSP,2013-05-03 11:26:00,
2013-05-03 06:31:00,31.6,23.3,30.29,North,0,0.0,0.0,71,0.00,,,0.00,WUHU21623XXSP,2013-05-03 11:31:00,
2013-05-03 06:36:00,31.8,23.5,30.29,North,0,0.0,0.0,71,0.00,,,0.00,WUHU21623XXSP,2013-05-03 11:36:00,
2013-05-03 06:41:00,31.8,23.5,30.29,North,0,0.0,0.0,71,0.00,,,0.00,WUHU21623XXSP,2013-05-03 11:41:00,
2013-05-03 06:46:00,32.0,23.7,30.29,North,0,0.0,0.0,71,0.00,,,0.00,WUHU21623XXSP,2013-05-03 11:46:00,
2013-05-03 06:51:00,32.0,23.7,30.30,North,0,0.0,0.0,71,0.00,,,0.00,WUHU21623XXSP,2013-05-03 11:51:00,
2013-05-03 06:56:00,32.0,23.7,30.29,North,0,0.0,0.0,71,0.00,,,0.00,WUHU21623XXSP,2013-05-03 11:56:00,
2013-05-03 07:01:00,32.2,23.8,30.29,North,0,0.0,0.0,71,0.00,,,0.00,WUHU21623XXSP,2013-05-03 12:01:00,
2013-05-03 07:06:00,32.2,23.8,30.29,North,0,0.0,0.0,71,0.00,,,0.00,WUHU21623XXSP,2013-05-03 12:06:00,
2013-05-03 07:11:00,32.2,23.8,30.30,North,0,0.0,0.0,71,0.00,,,0.00,WUHU21623XXSP,2013-05-03 12:11:00,
2013-05-03 07:16:00,32.2,23.8,30.29,North,0,0.0,0.0,71,0.00,,,0.00,WUHU21623XXSP,2013-05-03 12:16:00,
2013-05-03 07:21:00,32.4,24.0,30.29,North,0,0.0,0.0,71,0.00,,,0.00,WUHU21623XXSP,2013-05-03 12:21:00,
2013-05-03 07:26:00,32.4,23.7,30.30,North,0,0.0,0.0,70,0.00,,,0.00,WUHU21623XXSP,2013-05-03 12:26:00,
2013-05-03 07:31:00,32.4,23.7,30.29,North,0,0.0,0.0,70,0.00,,,0.00,WUHU21623XXSP,2013-05-03 12:31:00,
2013-05-03 07:36:00,32.5,23.8,30.29,North,0,0.0,0.0,70,0.00,,,0.00,WUHU21623XXSP,2013-05-03 12:36:00,
2013-05-03 07:41:00,32.5,23.8,30.29,North,0,0.0,0.0,70,0.00,,,0.00,WUHU21623XXSP,2013-05-03 12:41:00,
2013-05-03 07:46:00,32.5,23.8,30.29,North,0,0.0,0.0,70,0.00,,,0.00,WUHU21623XXSP,2013-05-03 12:46:00,
2013-05-03 07:51:00,32.7,24.0,30.28,North,0,0.0,0.0,70,0.00,,,0.00,WUHU21623XXSP,2013-05-03 12:51:00,
2013-05-03 07:56:00,32.7,24.0,30.29,North,0,0.0,0.0,70,0.00,,,0.00,WUHU21623XXSP,2013-05-03 12:56:00,
2013-05-03 08:01:00,32.9,24.2,30.28,North,0,0.0,0.0,70,0.00,,,0.00,WUHU21623XXSP,2013-05-03 13:01:00,
2013-05-03 08:06:00,33.1,24.3,30.29,North,0,0.0,0.0,70,0.00,,,0.00,WUHU21623XXSP,2013-05-03 13:06:00,
2013-05-03 08:11:00,33.3,24.5,30.29,North,0,0.0,0.0,70,0.00,,,0.00,WUHU21623XXSP,2013-05-03 13:11:00,
2013-05-03 08:16:00,33.4,24.3,30.28,North,0,0.0,0.0,69,0.00,,,0.00,WUHU21623XXSP,2013-05-03 13:16:00,
2013-05-03 08:21:00,33.6,24.8,30.28,North,0,0.0,0.0,70,0.00,,,0.00,WUHU21623XXSP,2013-05-03 13:21:00,
2013-05-03 08:26:00,33.8,24.6,30.28,North,0,0.0,0.0,69,0.00,,,0.00,WUHU21623XXSP,2013-05-03 13:26:00,
2013-05-03 08:31:00,34.2,25.0,30.27,North,0,0.0,0.0,69,0.00,,,0.00,WUHU21623XXSP,2013-05-03 13:31:00,
2013-05-03 08:36:00,34.3,25.2,30.27,North,0,0.0,0.0,69,0.00,,,0.00,WUHU21623XXSP,2013-05-03 13:36:00,
2013-05-03 08:41:00,34.5,25.0,30.27,North,0,0.0,0.0,68,0.00,,,0.00,WUHU21623XXSP,2013-05-03 13:41:00,
2013-05-03 08:46:00,34.7,25.2,30.27,North,0,0.0,0.0,68,0.00,,,0.00,WUHU21623XXSP,2013-05-03 13:46:00,
2013-05-03 08:51:00,34.9,25.3,30.27,North,0,0.0,0.0,68,0.00,,,0.00,WUHU21623XXSP,2013-05-03 13:51:00,
2013-05-03 08:56:00,35.2,25.3,30.27,North,0,0.0,0.0,67,0.00,,,0.00,WUHU21623XXSP,2013-05-03 13:56:00,
2013-05-03 09:01:00,35.4,25.5,30.27,North,0,0.0,0.0,67,0.00,,,0.00,WUHU21623XXSP,2013-05-03 14:01:00,
2013-05-03 09:06:00,35.4,25.5,30.26,North,0,0.0,0.0,67,0.00,,,0.00,WUHU21623XXSP,2013-05-03 14:06:00,
2013-05-03 09:11:00,35.8,25.5,30.26,North,0,0.0,0.0,66,0.00,,,0.00,WUHU21623XXSP,2013-05-03 14:11:00,
2013-05-03 09:16:00,36.0,25.7,30.26,North,0,0.0,0.0,66,0.00,,,0.00,WUHU21623XXSP,2013-05-03 14:16:00,
2013-05-03 09:21:00,36.1,25.8,30.26,North,0,0.0,0.0,66,0.00,,,0.00,WUHU21623XXSP,2013-05-03 14:21:00,
2013-05-03 09:26:00,36.3,25.7,30.26,North,0,0.0,0.0,65,0.00,,,0.00,WUHU21623XXSP,2013-05-03 14:26:00,
2013-05-03 09:31:00,36.5,25.8,30.26,North,0,0.0,0.0,65,0.00,,,0.00,WUHU21623XXSP,2013-05-03 14:31:00,
2013-05-03 09:36:00,36.5,25.5,30.25,North,0,0.0,0.0,64,0.00,,,0.00,WUHU21623XXSP,2013-05-03 14:36:00,
2013-05-03 09:41:00,36.3,25.3,30.25,North,0,0.0,0.0,64,0.00,,,0.00,WUHU21623XXSP,2013-05-03 14:41:00,
2013-05-03 09:46:00,36.3,25.3,30.25,North,0,0.0,0.0,64,0.00,,,0.00,WUHU21623XXSP,2013-05-03 14:46:00,
2013-05-03 09:51:00,36.3,25.3,30.25,North,0,0.0,0.0,64,0.00,,,0.00,WUHU21623XXSP,2013-05-03 14:51:00,
2013-05-03 09:56:00,36.5,25.8,30.25,North,0,0.0,0.0,65,0.00,,,0.00,WUHU21623XXSP,2013-05-03 14:56:00,
2013-05-03 10:01:00,36.7,26.0,30.25,North,0,0.0,0.0,65,0.00,,,0.00,WUHU21623XXSP,2013-05-03 15:01:00,
2013-05-03 10:06:00,36.7,26.0,30.25,North,0,0.0,0.0,65,0.00,,,0.00,WUHU21623XXSP,2013-05-03 15:06:00,
2013-05-03 10:11:00,36.9,26.2,30.25,North,0,0.0,0.0,65,0.00,,,0.00,WUHU21623XXSP,2013-05-03 15:11:00,
2013-05-03 10:16:00,36.7,26.0,30.26,North,0,0.0,0.0,65,0.00,,,0.00,WUHU21623XXSP,2013-05-03 15:16:00,
2013-05-03 10:21:00,36.3,25.7,30.26,North,0,0.0,0.0,65,0.00,,,0.00,WUHU21623XXSP,2013-05-03 15:21:00,
2013-05-03 10:26:00,36.1,25.5,30.26,North,0,0.0,0.0,65,0.00,,,0.00,WUHU21623XXSP,2013-05-03 15:26:00,
2013-05-03 10:31:00,35.8,25.5,30.26,North,0,0.0,0.0,66,0.00,,,0.00,WUHU21623XXSP,2013-05-03 15:31:00,
2013-05-03 10:37:00,35.8,25.9,30.26,North,0,0.0,0.0,67,0.00,,,0.00,WUHU21623XXSP,2013-05-03 15:37:00,
2013-05-03 10:42:00,35.8,25.9,30.26,North,0,0.0,0.0,67,0.00,,,0.00,WUHU21623XXSP,2013-05-03 15:42:00,
2013-05-03 10:47:00,35.4,25.5,30.26,North,0,0.0,0.0,67,0.00,,,0.00,WUHU21623XXSP,2013-05-03 15:47:00,
2013-05-03 10:52:00,35.8,26.2,30.25,North,0,0.0,0.0,68,0.00,,,0.00,WUHU21623XXSP,2013-05-03 15:52:00,
2013-05-03 10:57:00,35.8,26.6,30.25,North,0,0.0,0.0,69,0.00,,,0.00,WUHU21623XXSP,2013-05-03 15:57:00,
2013-05-03 11:02:00,35.8,27.0,30.25,North,0,0.0,0.0,70,0.00,,,0.00,WUHU21623XXSP,2013-05-03 16:02:00,
2013-05-03 11:07:00,35.8,27.3,30.25,North,0,0.0,0.0,71,0.00,,,0.00,WUHU21623XXSP,2013-05-03 16:07:00,
2013-05-03 11:11:00,35.8,27.6,30.24,North,0,0.0,0.0,72,0.00,,,0.00,WUHU21623XXSP,2013-05-03 16:11:00,
2013-05-03 11:16:00,35.8,27.9,30.24,North,0,0.0,0.0,73,0.00,,,0.00,WUHU21623XXSP,2013-05-03 16:16:00,
2013-05-03 11:21:00,36.0,28.4,30.24,North,0,0.0,0.0,74,0.00,,,0.00,WUHU21623XXSP,2013-05-03 16:21:00,
2013-05-03 11:26:00,36.0,28.4,30.24,North,0,0.0,0.0,74,0.00,,,0.00,WUHU21623XXSP,2013-05-03 16:26:00,
2013-05-03 11:31:00,35.8,28.9,30.23,North,0,0.0,0.0,76,0.00,,,0.00,WUHU21623XXSP,2013-05-03 16:31:00,
2013-05-03 11:36:00,36.0,29.1,30.23,North,0,0.0,0.0,76,0.00,,,0.00,WUHU21623XXSP,2013-05-03 16:36:00,
2013-05-03 11:42:00,36.1,29.6,30.23,North,0,0.0,0.0,77,0.00,,,0.00,WUHU21623XXSP,2013-05-03 16:42:00,
2013-05-03 11:47:00,36.1,29.9,30.23,North,0,0.0,0.0,78,0.00,,,0.00,WUHU21623XXSP,2013-05-03 16:47:00,
2013-05-03 11:52:00,36.0,29.7,30.23,North,0,0.0,0.0,78,0.00,,,0.00,WUHU21623XXSP,2013-05-03 16:52:00,
2013-05-03 11:56:00,36.0,29.7,30.23,North,0,0.0,0.0,78,0.00,,,0.00,WUHU21623XXSP,2013-05-03 16:56:00,
2013-05-03 12:01:00,36.0,30.1,30.22,North,0,0.0,0.0,79,0.00,,,0.00,WUHU21623XXSP,2013-05-03 17:01:00,
2013-05-03 12:06:00,36.1,30.6,30.22,North,0,0.0,0.0,80,0.00,,,0.00,WUHU21623XXSP,2013-05-03 17:06:00,
2013-05-03 12:11:00,36.3,30.7,30.22,North,0,0.0,0.0,79,0.00,,,0.00,WUHU21623XXSP,2013-05-03 17:11:00,
2013-05-03 12:17:00,36.7,31.1,30.22,North,0,0.0,0.0,80,0.00,,,0.00,WUHU21623XXSP,2013-05-03 17:17:00,
2013-05-03 12:22:00,36.9,31.3,30.22,North,0,0.0,0.0,80,0.00,,,0.00,WUHU21623XXSP,2013-05-03 17:22:00,
2013-05-03 12:27:00,37.0,31.5,30.21,North,0,0.0,0.0,80,0.00,,,0.00,WUHU21623XXSP,2013-05-03 17:27:00,
2013-05-03 12:32:00,37.2,31.6,30.21,North,0,0.0,0.0,80,0.00,,,0.00,WUHU21623XXSP,2013-05-03 17:32:00,
2013-05-03 12:37:00,37.2,31.6,30.20,North,0,0.0,0.0,80,0.00,,,0.00,WUHU21623XXSP,2013-05-03 17:37:00,
2013-05-03 12:42:00,37.2,31.6,30.20,North,0,0.0,0.0,80,0.00,,,0.00,WUHU21623XXSP,2013-05-03 17:42:00,
2013-05-03 12:47:00,37.2,31.6,30.20,North,0,0.0,0.0,80,0.00,,,0.00,WUHU21623XXSP,2013-05-03 17:47:00,
2013-05-03 12:52:00,37.2,31.6,30.19,North,0,0.0,0.0,80,0.00,,,0.00,WUHU21623XXSP,2013-05-03 17:52:00,
2013-05-03 12:57:00,37.0,31.7,30.19,North,0,0.0,0.0,81,0.00,,,0.00,WUHU21623XXSP,2013-05-03 17:57:00,
2013-05-03 13:02:00,36.7,31.1,30.19,North,0,0.0,0.0,80,0.00,,,0.00,WUHU21623XXSP,2013-05-03 18:02:00,
2013-05-03 13:07:00,36.7,31.4,30.19,North,0,0.0,0.0,81,0.00,,,0.00,WUHU21623XXSP,2013-05-03 18:07:00,
2013-05-03 13:12:00,36.5,31.2,30.18,North,0,0.0,0.0,81,0.00,,,0.00,WUHU21623XXSP,2013-05-03 18:12:00,
2013-05-03 13:17:00,36.7,31.4,30.18,North,0,0.0,0.0,81,0.00,,,0.00,WUHU21623XXSP,2013-05-03 18:17:00,
2013-05-03 13:22:00,36.7,31.4,30.18,North,0,0.0,0.0,81,0.00,,,0.00,WUHU21623XXSP,2013-05-03 18:22:00,
2013-05-03 13:27:00,36.9,31.6,30.18,North,0,0.0,0.0,81,0.00,,,0.00,WUHU21623XXSP,2013-05-03 18:27:00,
2013-05-03 13:32:00,37.0,31.7,30.18,North,0,0.0,0.0,81,0.00,,,0.00,WUHU21623XXSP,2013-05-03 18:32:00,
2013-05-03 13:37:00,37.0,31.7,30.18,North,0,0.0,0.0,81,0.00,,,0.00,WUHU21623XXSP,2013-05-03 18:37:00,
2013-05-03 13:42:00,36.9,31.3,30.18,North,0,0.0,0.0,80,0.00,,,0.00,WUHU21623XXSP,2013-05-03 18:42:00,
2013-05-03 13:47:00,36.9,31.3,30.18,North,0,0.0,0.0,80,0.00,,,0.00,WUHU21623XXSP,2013-05-03 18:47:00,
2013-05-03 13:52:00,36.7,31.1,30.18,North,0,0.0,0.0,80,0.00,,,0.00,WUHU21623XXSP,2013-05-03 18:52:00,
2013-05-03 13:57:00,36.7,31.1,30.17,North,0,0.0,0.0,80,0.00,,,0.00,WUHU21623XXSP,2013-05-03 18:57:00,
2013-05-03 14:02:00,36.9,31.3,30.17,North,0,0.0,0.0,80,0.00,,,0.00,WUHU21623XXSP,2013-05-03 19:02:00,
2013-05-03 14:07:00,36.9,31.3,30.17,North,0,0.0,0.0,80,0.00,,,0.00,WUHU21623XXSP,2013-05-03 19:07:00,
2013-05-03 14:12:00,36.9,31.3,30.17,North,0,0.0,0.0,80,0.00,,,0.00,WUHU21623XXSP,2013-05-03 19:12:00,
2013-05-03 14:17:00,36.7,31.4,30.17,North,0,0.0,0.0,81,0.00,,,0.00,WUHU21623XXSP,2013-05-03 19:17:00,
2013-05-03 14:22:00,37.0,31.5,30.17,North,0,0.0,0.0,80,0.00,,,0.00,WUHU21623XXSP,2013-05-03 19:22:00,
2013-05-03 14:27:00,36.9,31.3,30.17,North,0,0.0,0.0,80,0.00,,,0.00,WUHU21623XXSP,2013-05-03 19:27:00,
2013-05-03 14:32:00,36.9,31.3,30.17,North,0,0.0,0.0,80,0.00,,,0.00,WUHU21623XXSP,2013-05-03 19:32:00,
2013-05-03 14:37:00,37.0,31.5,30.18,North,0,0.0,0.0,80,0.00,,,0.00,WUHU21623XXSP,2013-05-03 19:37:00,
2013-05-03 14:42:00,37.0,31.5,30.17,North,0,0.0,0.0,80,0.00,,,0.00,WUHU21623XXSP,2013-05-03 19:42:00,
2013-05-03 14:47:00,37.0,31.5,30.17,North,0,0.0,0.0,80,0.00,,,0.00,WUHU21623XXSP,2013-05-03 19:47:00,
2013-05-03 14:52:00,37.2,31.6,30.17,North,0,0.0,0.0,80,0.00,,,0.00,WUHU21623XXSP,2013-05-03 19:52:00,
2013-05-03 14:57:00,37.2,31.6,30.17,North,0,0.0,0.0,80,0.00,,,0.00,WUHU21623XXSP,2013-05-03 19:57:00,
2013-05-03 15:02:00,37.4,31.8,30.16,North,0,0.0,0.0,80,0.00,,,0.00,WUHU21623XXSP,2013-05-03 20:02:00,
2013-05-03 15:07:00,37.6,32.0,30.16,North,0,0.0,0.0,80,0.00,,,0.00,WUHU21623XXSP,2013-05-03 20:07:00,
2013-05-03 15:12:00,37.6,31.7,30.16,North,0,0.0,0.0,79,0.00,,,0.00,WUHU21623XXSP,2013-05-03 20:12:00,
2013-05-03 15:17:00,37.6,31.7,30.16,North,0,0.0,0.0,79,0.00,,,0.00,WUHU21623XXSP,2013-05-03 20:17:00,
2013-05-03 15:22:00,37.6,31.7,30.16,North,0,0.0,0.0,79,0.00,,,0.00,WUHU21623XXSP,2013-05-03 20:22:00,
2013-05-03 15:27:00,37.6,31.7,30.16,North,0,0.0,0.0,79,0.00,,,0.00,WUHU21623XXSP,2013-05-03 20:27:00,
2013-05-03 15:32:00,37.6,31.7,30.16,North,0,0.0,0.0,79,0.00,,,0.00,WUHU21623XXSP,2013-05-03 20:32:00,
2013-05-03 15:37:00,37.6,31.3,30.16,North,0,0.0,0.0,78,0.00,,,0.00,WUHU21623XXSP,2013-05-03 20:37:00,
2013-05-03 15:42:00,37.2,31.0,30.16,North,0,0.0,0.0,78,0.00,,,0.00,WUHU21623XXSP,2013-05-03 20:42:00,
2013-05-03 15:47:00,37.2,31.3,30.16,North,0,0.0,0.0,79,0.00,,,0.00,WUHU21623XXSP,2013-05-03 20:47:00,
2013-05-03 15:52:00,37.2,31.3,30.16,North,0,0.0,0.0,79,0.00,,,0.00,WUHU21623XXSP,2013-05-03 20:52:00,
2013-05-03 15:57:00,37.0,31.5,30.15,North,0,0.0,0.0,80,0.00,,,0.00,WUHU21623XXSP,2013-05-03 20:57:00,
2013-05-03 16:02:00,37.0,31.5,30.16,North,0,0.0,0.0,80,0.00,,,0.00,WUHU21623XXSP,2013-05-03 21:02:00,
2013-05-03 16:07:00,36.9,31.0,30.16,North,0,0.0,0.0,79,0.00,,,0.00,WUHU21623XXSP,2013-05-03 21:07:00,
2013-05-03 16:12:00,37.0,31.1,30.16,North,0,0.0,0.0,79,0.00,,,0.00,WUHU21623XXSP,2013-05-03 21:12:00,
2013-05-03 16:17:00,37.0,31.1,30.16,North,0,0.0,0.0,79,0.00,,,0.00,WUHU21623XXSP,2013-05-03 21:17:00,
2013-05-03 16:23:00,36.9,30.6,30.16,North,0,0.0,0.0,78,0.00,,,0.00,WUHU21623XXSP,2013-05-03 21:23:00,
2013-05-03 16:28:00,36.9,31.0,30.15,North,0,0.0,0.0,79,0.00,,,0.00,WUHU21623XXSP,2013-05-03 21:28:00,
2013-05-03 16:33:00,36.9,31.0,30.15,North,0,0.0,0.0,79,0.00,,,0.00,WUHU21623XXSP,2013-05-03 21:33:00,
2013-05-03 16:38:00,37.0,31.1,30.15,North,0,0.0,0.0,79,0.00,,,0.00,WUHU21623XXSP,2013-05-03 21:38:00,
2013-05-03 16:42:00,37.0,31.1,30.14,North,0,0.0,0.0,79,0.00,,,0.00,WUHU21623XXSP,2013-05-03 21:42:00,
2013-05-03 16:47:00,37.0,31.5,30.15,North,0,0.0,0.0,80,0.00,,,0.00,WUHU21623XXSP,2013-05-03 21:47:00,
2013-05-03 16:53:00,36.9,31.3,30.15,North,0,0.0,0.0,80,0.00,,,0.00,WUHU21623XXSP,2013-05-03 21:53:00,
2013-05-03 16:58:00,36.9,31.3,30.15,North,0,0.0,0.0,80,0.00,,,0.00,WUHU21623XXSP,2013-05-03 21:58:00,
2013-05-03 17:03:00,36.9,31.3,30.15,North,0,0.0,0.0,80,0.00,,,0.00,WUHU21623XXSP,2013-05-03 22:03:00,
2013-05-03 17:08:00,36.7,31.1,30.15,North,0,0.0,0.0,80,0.00,,,0.00,WUHU21623XXSP,2013-05-03 22:08:00,
2013-05-03 17:13:00,36.7,31.1,30.14,North,0,0.0,0.0,80,0.00,,,0.00,WUHU21623XXSP,2013-05-03 22:13:00,
2013-05-03 17:18:00,36.7,31.4,30.15,North,0,0.0,0.0,81,0.00,,,0.00,WUHU21623XXSP,2013-05-03 22:18:00,
2013-05-03 17:23:00,36.7,31.4,30.15,North,0,0.0,0.0,81,0.00,,,0.00,WUHU21623XXSP,2013-05-03 22:23:00,
2013-05-03 17:28:00,36.5,30.9,30.15,North,0,0.0,0.0,80,0.00,,,0.00,WUHU21623XXSP,2013-05-03 22:28:00,
2013-05-03 17:33:00,36.5,30.9,30.15,North,0,0.0,0.0,80,0.00,,,0.00,WUHU21623XXSP,2013-05-03 22:33:00,
2013-05-03 17:38:00,36.3,31.0,30.15,North,0,0.0,0.0,81,0.00,,,0.00,WUHU21623XXSP,2013-05-03 22:38:00,
2013-05-03 17:43:00,36.3,30.7,30.16,North,0,0.0,0.0,80,0.00,,,0.00,WUHU21623XXSP,2013-05-03 22:43:00,
2013-05-03 17:48:00,36.3,30.7,30.16,North,0,0.0,0.0,80,0.00,,,0.00,WUHU21623XXSP,2013-05-03 22:48:00,
2013-05-03 17:53:00,36.1,30.6,30.16,North,0,0.0,0.0,80,0.00,,,0.00,WUHU21623XXSP,2013-05-03 22:53:00,
2013-05-03 17:58:00,36.3,31.0,30.16,North,0,0.0,0.0,81,0.00,,,0.00,WUHU21623XXSP,2013-05-03 22:58:00,
2013-05-03 18:03:00,36.1,30.6,30.16,North,0,0.0,0.0,80,0.00,,,0.00,WUHU21623XXSP,2013-05-03 23:03:00,
2013-05-03 18:08:00,36.1,30.6,30.16,North,0,0.0,0.0,80,0.00,,,0.00,WUHU21623XXSP,2013-05-03 23:08:00,
2013-05-03 18:13:00,36.1,30.6,30.16,North,0,0.0,0.0,80,0.00,,,0.00,WUHU21623XXSP,2013-05-03 23:13:00,
2013-05-03 18:18:00,36.0,30.4,30.16,North,0,0.0,0.0,80,0.00,,,0.00,WUHU21623XXSP,2013-05-03 23:18:00,
2013-05-03 18:23:00,35.8,30.5,30.16,North,0,0.0,0.0,81,0.00,,,0.00,WUHU21623XXSP,2013-05-03 23:23:00,
2013-05-03 18:28:00,35.8,30.5,30.16,North,0,0.0,0.0,81,0.00,,,0.00,WUHU21623XXSP,2013-05-03 23:28:00,
2013-05-03 18:33:00,35.8,30.5,30.16,North,0,0.0,0.0,81,0.00,,,0.00,WUHU21623XXSP,2013-05-03 23:33:00,
2013-05-03 18:38:00,35.8,30.2,30.16,North,0,0.0,0.0,80,0.00,,,0.00,WUHU21623XXSP,2013-05-03 23:38:00,
2013-05-03 18:43:00,35.8,30.2,30.16,North,0,0.0,0.0,80,0.00,,,0.00,WUHU21623XXSP,2013-05-03 23:43:00,
2013-05-03 18:48:00,35.8,30.2,30.16,North,0,0.0,0.0,80,0.00,,,0.00,WUHU21623XXSP,2013-05-03 23:48:00,
2013-05-03 18:53:00,35.8,30.2,30.16,North,0,0.0,0.0,80,0.00,,,0.00,WUHU21623XXSP,2013-05-03 23:53:00,
2013-05-03 18:58:00,35.6,30.0,30.16,North,0,0.0,0.0,80,0.00,,,0.00,WUHU21623XXSP,2013-05-03 23:58:00,
2013-05-03 19:03:00,35.4,29.8,30.16,North,0,0.0,0.0,80,0.00,,,0.00,WUHU21623XXSP,2013-05-04 00:03:00,
2013-05-03 19:08:00,35.4,30.1,30.16,North,0,0.0,0.0,81,0.00,,,0.00,WUHU21623XXSP,2013-05-04 00:08:00,
2013-05-03 19:13:00,35.4,30.1,30.16,North,0,0.0,0.0,81,0.00,,,0.00,WUHU21623XXSP,2013-05-04 00:13:00,
2013-05-03 19:18:00,35.4,30.4,30.16,North,0,0.0,0.0,82,0.00,,,0.00,WUHU21623XXSP,2013-05-04 00:18:00,
2013-05-03 19:23:00,35.4,30.4,30.15,North,0,0.0,0.0,82,0.00,,,0.00,WUHU21623XXSP,2013-05-04 00:23:00,
2013-05-03 19:28:00,35.2,30.2,30.16,North,0,0.0,0.0,82,0.00,,,0.00,WUHU21623XXSP,2013-05-04 00:28:00,
2013-05-03 19:33:00,35.2,30.2,30.15,North,0,0.0,0.0,82,0.00,,,0.00,WUHU21623XXSP,2013-05-04 00:33:00,
2013-05-03 19:38:00,35.2,30.5,30.15,North,0,0.0,0.0,83,0.00,,,0.00,WUHU21623XXSP,2013-05-04 00:38:00,
2013-05-03 19:43:00,35.2,30.5,30.14,North,0,0.0,0.0,83,0.00,,,0.00,WUHU21623XXSP,2013-05-04 00:43:00,
2013-05-03 19:48:00,35.2,30.5,30.14,North,0,0.0,0.0,83,0.00,,,0.00,WUHU21623XXSP,2013-05-04 00:48:00,
2013-05-03 19:53:00,34.9,30.6,30.14,North,0,0.0,0.0,84,0.00,,,0.00,WUHU21623XXSP,2013-05-04 00:53:00,
2013-05-03 19:58:00,34.9,30.5,30.14,North,0,0.0,0.0,84,0.00,,,0.00,WUHU21623XXSP,2013-05-04 00:58:00,
2013-05-03 20:03:00,34.9,30.5,30.14,North,0,0.0,0.0,84,0.00,,,0.00,WUHU21623XXSP,2013-05-04 01:03:00,
2013-05-03 20:08:00,34.9,30.2,30.14,North,0,0.0,0.0,83,0.00,,,0.00,WUHU21623XXSP,2013-05-04 01:08:00,
2013-05-03 20:13:00,34.7,30.3,30.14,North,0,0.0,0.0,84,0.00,,,0.00,WUHU21623XXSP,2013-05-04 01:13:00,
2013-05-03 20:18:00,34.7,30.3,30.14,North,0,0.0,0.0,84,0.00,,,0.00,WUHU21623XXSP,2013-05-04 01:18:00,
2013-05-03 20:23:00,34.7,30.3,30.15,North,0,0.0,0.0,84,0.00,,,0.00,WUHU21623XXSP,2013-05-04 01:23:00,
2013-05-03 20:28:00,34.7,30.3,30.15,North,0,0.0,0.0,84,0.00,,,0.00,WUHU21623XXSP,2013-05-04 01:28:00,
2013-05-03 20:33:00,34.5,30.1,30.14,North,0,0.0,0.0,84,0.00,,,0.00,WUHU21623XXSP,2013-05-04 01:33:00,
2013-05-03 20:38:00,34.5,30.1,30.14,North,0,0.0,0.0,84,0.00,,,0.00,WUHU21623XXSP,2013-05-04 01:38:00,
2013-05-03 20:43:00,34.5,30.1,30.14,North,0,0.0,0.0,84,0.00,,,0.00,WUHU21623XXSP,2013-05-04 01:43:00,
2013-05-03 20:48:00,34.5,29.8,30.14,North,0,0.0,0.0,83,0.00,,,0.00,WUHU21623XXSP,2013-05-04 01:48:00,
2013-05-03 20:53:00,34.5,30.1,30.14,North,0,0.0,0.0,84,0.00,,,0.00,WUHU21623XXSP,2013-05-04 01:53:00,
2013-05-03 20:58:00,34.3,29.9,30.14,North,0,0.0,0.0,84,0.00,,,0.00,WUHU21623XXSP,2013-05-04 01:58:00,
2013-05-03 21:03:00,34.3,30.2,30.14,North,0,0.0,0.0,85,0.00,,,0.00,WUHU21623XXSP,2013-05-04 02:03:00,
2013-05-03 21:08:00,34.3,30.2,30.14,North,0,0.0,0.0,85,0.00,,,0.00,WUHU21623XXSP,2013-05-04 02:08:00,
2013-05-03 21:13:00,34.2,30.0,30.14,North,0,0.0,0.0,85,0.00,,,0.00,WUHU21623XXSP,2013-05-04 02:13:00,
2013-05-03 21:18:00,34.2,30.0,30.15,North,0,0.0,0.0,85,0.00,,,0.00,WUHU21623XXSP,2013-05-04 02:18:00,
2013-05-03 21:23:00,34.2,29.7,30.14,North,0,0.0,0.0,84,0.00,,,0.00,WUHU21623XXSP,2013-05-04 02:23:00,
2013-05-03 21:28:00,34.2,29.7,30.14,North,0,0.0,0.0,84,0.00,,,0.00,WUHU21623XXSP,2013-05-04 02:28:00,
2013-05-03 21:33:00,34.0,29.8,30.14,North,0,0.0,0.0,85,0.00,,,0.00,WUHU21623XXSP,2013-05-04 02:33:00,
2013-05-03 21:38:00,34.0,29.8,30.14,North,0,0.0,0.0,85,0.00,,,0.00,WUHU21623XXSP,2013-05-04 02:38:00,
2013-05-03 21:43:00,34.0,29.8,30.14,North,0,0.0,0.0,85,0.00,,,0.00,WUHU21623XXSP,2013-05-04 02:43:00,
2013-05-03 21:48:00,34.0,29.8,30.15,North,0,0.0,0.0,85,0.00,,,0.00,WUHU21623XXSP,2013-05-04 02:48:00,
2013-05-03 21:53:00,34.0,29.8,30.15,North,0,0.0,0.0,85,0.00,,,0.00,WUHU21623XXSP,2013-05-04 02:53:00,
2013-05-03 21:58:00,34.0,29.8,30.15,North,0,0.0,0.0,85,0.00,,,0.00,WUHU21623XXSP,2013-05-04 02:58:00,
2013-05-03 22:03:00,34.0,29.8,30.15,North,0,0.0,0.0,85,0.00,,,0.00,WUHU21623XXSP,2013-05-04 03:03:00,
2013-05-03 22:08:00,33.8,29.7,30.16,North,0,0.0,0.0,85,0.00,,,0.00,WUHU21623XXSP,2013-05-04 03:08:00,
2013-05-03 22:13:00,33.8,29.7,30.16,North,0,0.0,0.0,85,0.00,,,0.00,WUHU21623XXSP,2013-05-04 03:13:00,
2013-05-03 22:18:00,33.8,29.7,30.16,North,0,0.0,0.0,85,0.00,,,0.00,WUHU21623XXSP,2013-05-04 03:18:00,
2013-05-03 22:23:00,33.8,29.7,30.16,North,0,0.0,0.0,85,0.00,,,0.00,WUHU21623XXSP,2013-05-04 03:23:00,
2013-05-03 22:28:00,33.8,29.7,30.16,North,0,0.0,0.0,85,0.00,,,0.00,WUHU21623XXSP,2013-05-04 03:28:00,
2013-05-03 22:33:00,33.8,29.7,30.16,North,0,0.0,0.0,85,0.00,,,0.00,WUHU21623XXSP,2013-05-04 03:33:00,
2013-05-03 22:38:00,33.8,29.7,30.16,North,0,0.0,0.0,85,0.00,,,0.00,WUHU21623XXSP,2013-05-04 03:38:00,
2013-05-03 22:43:00,33.8,29.7,30.16,North,0,0.0,0.0,85,0.00,,,0.00,WUHU21623XXSP,2013-05-04 03:43:00,
2013-05-03 22:48:00,33.8,29.7,30.16,North,0,0.0,0.0,85,0.00,,,0.00,WUHU21623XXSP,2013-05-04 03:48:00,
2013-05-03 22:53:00,33.8,29.7,30.16,North,0,0.0,0.0,85,0.00,,,0.00,WUHU21623XXSP,2013-05-04 03:53:00,
2013-05-03 22:58:00,34.0,29.8,30.16,North,0,0.0,0.0,85,0.00,,,0.00,WUHU21623XXSP,2013-05-04 03:58:00,
2013-05-03 23:01:00,33.8,29.7,30.15,North,0,0.0,0.0,85,0.00,,,0.00,WUHU21623XXSP,2013-05-04 04:01:00,
2013-05-03 23:06:00,33.8,29.7,30.15,North,0,0.0,0.0,85,0.00,,,0.00,WUHU21623XXSP,2013-05-04 04:06:00,
2013-05-03 23:11:00,33.8,29.7,30.15,North,0,0.0,0.0,85,0.00,,,0.00,WUHU21623XXSP,2013-05-04 04:11:00,
2013-05-03 23:16:00,33.6,29.5,30.15,North,0,0.0,0.0,85,0.00,,,0.00,WUHU21623XXSP,2013-05-04 04:16:00,
2013-05-03 23:21:00,33.6,29.5,30.15,North,0,0.0,0.0,85,0.00,,,0.00,WUHU21623XXSP,2013-05-04 04:21:00,
2013-05-03 23:26:00,33.6,29.5,30.14,North,0,0.0,0.0,85,0.00,,,0.00,WUHU21623XXSP,2013-05-04 04:26:00,
2013-05-03 23:31:00,33.6,29.5,30.14,North,0,0.0,0.0,85,0.00,,,0.00,WUHU21623XXSP,2013-05-04 04:31:00,
2013-05-03 23:36:00,33.6,29.5,30.14,North,0,0.0,0.0,85,0.00,,,0.00,WUHU21623XXSP,2013-05-04 04:36:00,
2013-05-03 23:41:00,33.6,29.5,30.14,North,0,0.0,0.0,85,0.00,,,0.00,WUHU21623XXSP,2013-05-04 04:41:00,
2013-05-03 23:46:00,33.6,29.5,30.14,North,0,0.0,0.0,85,0.00,,,0.00,WUHU21623XXSP,2013-05-04 04:46:00,
2013-05-03 23:51:00,33.6,29.5,30.14,North,0,0.0,0.0,85,0.00,,,0.00,WUHU21623XXSP,2013-05-04 04:51:00,
2013-05-03 23:56:00,33.6,29.5,30.13,North,0,0.0,0.0,85,0.00,,,0.00,WUHU21623XXSP,2013-05-04 04:56:00,